Total_Precipitation_Accumulation
0.08 0.10 0.10 0.09 0.10 0.08 0.06 0.06 0.03 0.01 0.00 0.00 0.00 0.00 0.00 0.00 0.00 0.00 0.00 0.00 0.00 0.00 0.00 0.00 0.00 0.00 0.00 0.00 0.00 0.00 0.01 0.01 0.02 0.02 0.02 0.02 0.02 0.02
0.06 0.07 0.09 0.08 0.10 0.08 0.06 0.06 0.04 0.05 0.09 0.05 0.03 0.02 0.01 0.00 0.00 0.00 0.00 0.00 0.00 0.00 0.00 0.00 0.00 0.00 0.00 0.00 0.00 0.00 0.00 0.01 0.01 0.01 0.02 0.03 0.04 0.06
0.12 0.10 0.10 0.10 0.14 0.18 0.26 0.34 0.39 0.39 0.39 0.23 0.13 0.13 0.09 0.03 0.01 0.00 0.00 0.00 0.00 0.00 0.00 0.00 0.00 0.00 0.00 0.00 0.00 0.00 0.00 0.00 0.01 0.01 0.02 0.03 0.05 0.06
0.14 0.19 0.21 0.24 0.31 0.33 0.34 0.31 0.27 0.24 0.29 0.25 0.13 0.09 0.07 0.05 0.03 0.01 0.01 0.00 0.00 0.00 0.00 0.00 0.00 0.00 0.00 0.00 0.00 0.00 0.00 0.00 0.01 0.01 0.02 0.05 0.07 0.08
0.23 0.24 0.22 0.24 0.25 0.21 0.20 0.19 0.16 0.18 0.21 0.26 0.20 0.10 0.07 0.05 0.04 0.03 0.02 0.02 0.00 0.00 0.00 0.00 0.00 0.00 0.00 0.00 0.00 0.00 0.00 0.00 0.00 0.01 0.02 0.03 0.03 0.04
0.10 0.10 0.10 0.12 0.12 0.12 0.13 0.11 0.10 0.11 0.15 0.19 0.25 0.19 0.12 0.08 0.05 0.05 0.03 0.02 0.02 0.02 0.01 0.00 0.00 0.00 0.00 0.00 0.00 0.00 0.00 0.00 0.01 0.01 0.02 0.05 0.06 0.07
0.02 0.02 0.03 0.07 0.10 0.08 0.08 0.10 0.12 0.16 0.21 0.22 0.24 0.19 0.15 0.09 0.03 0.03 0.05 0.07 0.09 0.06 0.01 0.00 0.00 0.00 0.00 0.00 0.00 0.00 0.00 0.00 0.00 0.01 0.03 0.08 0.09 0.08
0.03 0.03 0.04 0.11 0.10 0.15 0.16 0.20 0.23 0.25 0.25 0.22 0.22 0.22 0.16 0.10 0.13 0.19 0.17 0.16 0.15 0.10 0.05 0.02 0.00 0.00 0.00 0.00 0.00 0.00 0.00 0.00 0.00 0.00 0.02 0.03 0.05 0.06
0.05 0.06 0.08 0.11 0.17 0.12 0.22 0.31 0.30 0.33 0.24 0.16 0.18 0.19 0.19 0.21 0.24 0.27 0.21 0.19 0.18 0.12 0.06 0.02 0.00 0.00 0.00 0.00 0.00 0.00 0.00 0.00 0.00 0.01 0.02 0.03 0.02 0.02
0.06 0.06 0.06 0.07 0.12 0.12 0.07 0.11 0.14 0.19 0.20 0.15 0.17 0.29 0.37 0.42 0.40 0.35 0.28 0.22 0.16 0.08 0.03 0.01 0.00 0.00 0.00 0.00 0.00 0.00 0.00 0.00 0.00 0.01 0.01 0.02 0.02 0.02
0.12 0.14 0.17 0.16 0.44 0.37 0.24 0.32 0.43 0.51 0.57 0.52 0.49 0.46 0.41 0.34 0.27 0.23 0.18 0.11 0.06 0.03 0.01 0.01 0.00 0.00 0.00 0.00 0.00 0.00 0.00 0.00 0.00 0.00 0.00 0.01 0.01 0.00
0.14 0.24 0.46 0.31 0.49 0.37 0.28 0.24 0.32 0.34 0.29 0.28 0.26 0.23 0.19 0.14 0.10 0.07 0.06 0.03 0.01 0.00 0.00 0.00 0.00 0.00 0.01 0.00 0.00 0.00 0.00 0.00 0.00 0.00 0.00 0.00 0.00 0.00
0.22 0.25 0.31 0.38 0.24 0.23 0.20 0.16 0.23 0.28 0.28 0.24 0.21 0.18 0.14 0.07 0.03 0.02 0.01 0.01 0.00 0.00 0.00 0.00 0.00 0.00 0.02 0.01 0.00 0.00 0.00 0.00 0.01 0.01 0.01 0.00 0.00 0.00
0.23 0.24 0.35 0.40 0.28 0.27 0.25 0.25 0.26 0.24 0.22 0.21 0.19 0.13 0.06 0.02 0.01 0.01 0.00 0.00 0.00 0.00 0.00 0.00 0.02 0.00 0.02 0.02 0.01 0.00 0.00 0.01 0.02 0.02 0.04 0.04 0.01 0.00
0.21 0.30 0.38 0.34 0.28 0.24 0.22 0.22 0.20 0.15 0.11 0.08 0.06 0.04 0.02 0.00 0.00 0.00 0.00 0.00 0.00 0.00 0.00 0.00 0.02 0.03 0.05 0.05 0.02 0.01 0.01 0.01 0.02 0.03 0.05 0.07 0.05 0.02
0.30 0.34 0.33 0.31 0.30 0.28 0.25 0.19 0.14 0.10 0.08 0.06 0.04 0.02 0.00 0.00 0.00 0.00 0.00 0.00 0.00 0.00 0.00 0.00 0.00 0.03 0.06 0.04 0.05 0.04 0.04 0.04 0.03 0.04 0.05 0.07 0.08 0.08
0.29 0.27 0.25 0.20 0.17 0.14 0.11 0.07 0.05 0.03 0.02 0.01 0.01 0.00 0.00 0.00 0.00 0.00 0.00 0.00 0.00 0.00 0.00 0.00 0.00 0.01 0.02 0.02 0.04 0.02 0.03 0.04 0.03 0.05 0.07 0.08 0.08 0.09
0.22 0.22 0.22 0.19 0.16 0.13 0.10 0.06 0.03 0.02 0.01 0.01 0.01 0.00 0.00 0.00 0.00 0.00 0.00 0.00 0.00 0.00 0.00 0.00 0.00 0.00 0.02 0.01 0.01 0.02 0.04 0.05 0.07 0.06 0.07 0.11 0.08 0.08
0.26 0.24 0.21 0.17 0.12 0.08 0.05 0.04 0.03 0.02 0.01 0.01 0.01 0.01 0.01 0.00 0.00 0.00 0.00 0.00 0.00 0.00 0.00 0.00 0.00 0.02 0.05 0.03 0.01 0.03 0.09 0.10 0.09 0.07 0.08 0.12 0.14 0.14
0.12 0.11 0.10 0.08 0.06 0.04 0.03 0.02 0.01 0.01 0.01 0.01 0.01 0.01 0.01 0.01 0.01 0.00 0.00 0.00 0.00 0.00 0.00 0.00 0.00 0.02 0.07 0.07 0.05 0.02 0.03 0.06 0.12 0.15 0.14 0.12 0.09 0.06
0.08 0.07 0.06 0.05 0.03 0.02 0.02 0.02 0.02 0.02 0.01 0.01 0.01 0.01 0.01 0.01 0.01 0.01 0.01 0.01 0.00 0.00 0.00 0.00 0.00 0.01 0.02 0.05 0.06 0.02 0.02 0.03 0.05 0.11 0.13 0.22 0.25 0.17
0.03 0.03 0.02 0.02 0.02 0.02 0.02 0.02 0.01 0.01 0.01 0.01 0.01 0.01 0.01 0.01 0.01 0.01 0.01 0.02 0.01 0.01 0.01 0.00 0.00 0.00 0.02 0.06 0.04 0.05 0.06 0.08 0.06 0.04 0.04 0.11 0.22 0.29
0.02 0.02 0.02 0.02 0.01 0.01 0.01 0.01 0.01 0.01 0.01 0.01 0.01 0.01 0.01 0.01 0.01 0.01 0.02 0.02 0.01 0.01 0.01 0.01 0.01 0.01 0.02 0.04 0.05 0.07 0.09 0.09 0.09 0.09 0.05 0.03 0.08 0.09